GW6354 Weather Reports


time (UTC)temp
F
wind
direction
speed
knots
gust
knots
rain 1hr
in
rain 24hr
in
rain mn
in
humidity
%
barometer
mb
20260906064815 79 113 15.6 20.9 0.00 0.00 0.00 44 1021.9
20260906063823 79 115 14.8 20.0 0.00 0.00 0.00 44 1021.9
20260906062842 78 96 8.7 9.6 0.00 0.00 0.00 44 1021.8
20260906062421 78 104 12.2 17.4 0.00 0.00 0.00 45 1021.8
20260906061418 78 103 7.0 9.6 0.00 0.00 0.00 46 1021.8
20260906060416 77 90 7.0 8.7 0.00 0.00 0.00 47 1021.7
20260906055423 77 92 7.8 9.6 0.00 0.00 0.00 47 1021.7
20260906054421 76 91 5.2 7.8 0.00 0.00 0.00 49 1021.6
20260906053419 76 99 7.8 7.8 0.00 0.00 0.00 49 1021.5
20260906053118 76 81 7.0 9.6 0.00 0.00 0.00 49 1021.4
20260906052116 76 90 7.0 11.3 0.00 0.00 0.00 49 1021.3
20260906051124 75 83 7.0 9.6 0.00 0.00 0.00 50 1021.3
20260906050202 75 96 8.7 9.6 0.00 0.00 0.00 50 1021.1
20260906045139 75 90 6.1 8.7 0.00 0.00 0.00 52 1021.0
20260906044117 75 78 8.7 10.4 0.00 0.00 0.00 52 1021.0
20260906043716 75 83 6.1 7.8 0.00 0.00 0.00 52 1021.0
20260906042724 75 73 7.8 8.7 0.00 0.00 0.00 52 1020.9
20260906041742 75 81 7.0 9.6 0.00 0.00 0.00 52 1020.8
20260906040739 76 81 5.2 7.0 0.00 0.00 0.00 51 1020.8
20260906035737 76 100 7.0 9.6 0.00 0.00 0.00 51 1020.7
20260906034724 76 81 8.7 12.2 0.00 0.00 0.00 51 1020.6
20260906034323 76 88 7.0 10.4 0.00 0.00 0.00 51 1020.5
20260906033320 76 94 8.7 13.0 0.00 0.00 0.00 51 1020.4
20260906032358 76 86 6.1 8.7 0.00 0.00 0.00 51 1020.4
20260906031315 77 101 10.4 11.3 0.00 0.00 0.00 50 1020.3
20260906030403 77 105 8.7 13.0 0.00 0.00 0.00 49 1020.3
20260906025321 77 80 9.6 11.3 0.00 0.00 0.00 48 1020.2
20260906025022 77 109 8.7 12.2 0.00 0.00 0.00 48 1020.2
20260906024018 77 81 7.8 9.6 0.00 0.00 0.00 49 1020.2
20260906023015 77 74 6.1 8.7 0.00 0.00 0.00 48 1020.1
20260906022023 77 98 7.0 8.7 0.00 0.00 0.00 48 1020.1
20260906021101 78 99 7.8 9.6 0.00 0.00 0.00 48 1020.1
20260906020019 77 70 7.0 8.7 0.00 0.00 0.00 48 1020.0
20260906015617 77 89 8.7 12.2 0.00 0.00 0.00 48 1020.0
20260906014615 77 100 7.0 9.6 0.00 0.00 0.00 48 1020.0
20260906013622 76 98 5.2 7.8 0.00 0.00 0.00 52 1020.2
20260906012620 76 70 4.3 5.2 0.00 0.00 0.00 51 1020.2
20260906011618 77 70 4.3 5.2 0.00 0.00 0.00 49 1020.2
20260906010616 77 69 4.3 5.2 0.00 0.00 0.00 50 1020.0
20260906010215 77 72 5.2 5.2 0.00 0.00 0.00 50 1020.0
20260906005243 77 60 5.2 7.0 0.00 0.00 0.00 50 1020.0
20260906004220 77 62 3.5 5.2 0.00 0.00 0.00 49 1020.0
20260906003218 77 74 5.2 7.8 0.00 0.00 0.00 49 1020.0
20260906002215 77 83 5.2 7.0 0.00 0.00 0.00 49 1020.0
20260906001224 78 85 6.1 8.7 0.00 0.00 0.00 49 1020.0
20260906000823 78 86 5.2 7.0 0.00 0.00 0.00 49 1020.0
20260905235821 78 85 7.0 9.6 0.00 0.00 0.00 49 1019.9
20260905234818 77 85 5.2 6.1 0.00 0.00 0.00 50 1019.8
20260905233816 77 66 6.1 7.8 0.00 0.00 0.00 51 1019.7
20260905232823 78 60 6.1 7.0 0.00 0.00 0.00 50 1019.5
20260905231822 78 60 3.5 4.3 0.00 0.00 0.00 50 1019.5
20260905231541 78 67 5.2 7.0 0.00 0.00 0.00 49 1019.5
20260905230519 78 62 5.2 6.1 0.00 0.00 0.00 49 1019.5
20260905225516 79 92 6.1 7.8 0.00 0.00 0.00 49 1019.4
20260905224524 78 101 6.1 8.7 0.00 0.00 0.00 49 1019.4
20260905223522 78 88 7.0 8.7 0.00 0.00 0.00 49 1019.3
20260905222520 78 93 6.1 7.8 0.00 0.00 0.00 50 1019.2
20260905222139 77 95 7.8 10.4 0.00 0.00 0.00 51 1019.3
20260905221117 77 84 6.1 7.8 0.00 0.00 0.00 52 1019.4
20260905220124 77 87 7.0 8.7 0.00 0.00 0.00 52 1019.3
20260905215122 77 81 4.3 6.1 0.00 0.00 0.00 52 1019.2
20260905214120 78 79 4.3 5.2 0.00 0.00 0.00 51 1019.3
20260905213118 78 71 4.3 5.2 0.00 0.00 0.00 50 1019.4
20260905212716 78 53 6.1 7.0 0.00 0.00 0.00 51 1019.4
20260905211744 78 71 4.3 4.3 0.00 0.00 0.00 51 1019.2
20260905210721 78 66 3.5 4.3 0.00 0.00 0.00 51 1019.1
20260905205719 79 93 5.2 5.2 0.00 0.00 0.00 51 1019.2
20260905204716 79 80 4.3 6.1 0.00 0.00 0.00 50 1019.2
20260905203714 79 71 4.3 5.2 0.00 0.00 0.00 51 1019.1
20260905203323 79 66 3.5 5.2 0.00 0.00 0.00 51 1019.0
20260905202320 80 54 7.0 7.8 0.00 0.00 0.00 50 1019.1
20260905201318 80 64 7.8 9.6 0.00 0.00 0.00 50 1018.8
20260905200315 80 38 7.0 8.7 0.00 0.00 0.00 50 1018.6
20260905195324 80 49 6.1 7.8 0.00 0.00 0.00 50 1018.4
20260905194322 80 59 6.1 7.0 0.00 0.00 0.00 49 1018.4
20260905194021 80 69 5.2 7.0 0.00 0.00 0.00 49 1018.4
20260905193019 81 48 7.0 9.6 0.00 0.00 0.00 48 1018.4
20260905192036 81 44 6.1 7.0 0.00 0.00 0.00 48 1018.3
20260905191044 81 49 6.1 7.8 0.00 0.00 0.00 47 1018.2
20260905190023 80 50 6.1 7.0 0.00 0.00 0.00 49 1018.1
20260905185019 81 74 5.2 7.0 0.00 0.00 0.00 47 1018.0
20260905184638 81 99 7.0 8.7 0.00 0.00 0.00 47 1018.0
20260905183615 81 108 5.2 9.6 0.00 0.00 0.00 47 1017.7
20260905182623 81 118 7.8 11.3 0.00 0.00 0.00 46 1017.7
20260905181621 82 126 7.8 9.6 0.00 0.00 0.00 45 1017.6
20260905180618 82 113 8.7 11.3 0.00 0.00 0.00 45 1017.4
20260905175616 82 129 9.6 11.3 0.00 0.00 0.00 45 1017.3
20260905175225 83 128 8.7 11.3 0.00 0.00 0.00 44 1017.1
20260905174242 83 132 11.3 13.9 0.00 0.00 0.00 44 1017.1
20260905173219 83 127 11.3 13.9 0.00 0.00 0.00 44 1016.9
20260905172217 84 126 11.3 13.9 0.00 0.00 0.00 45 1016.7
20260905171225 85 134 8.7 11.3 0.00 0.00 0.00 44 1016.7
20260905170223 85 142 7.8 8.7 0.00 0.00 0.00 44 1016.7
20260905165821 85 126 8.7 10.4 0.00 0.00 0.00 43 1016.7
20260905164819 85 195 2.6 3.5 0.00 0.00 0.00 51 1016.5
20260905163816 86 209 2.6 3.5 0.00 0.00 0.00 51 1016.2
20260905162844 86 223 3.5 3.5 0.00 0.00 0.00 51 1016.0
20260905161822 87 246 3.5 4.3 0.00 0.00 0.00 54 1016.0
20260905160840 88 226 3.5 3.5 0.00 0.00 0.00 51 1015.9
20260905160519 88 230 4.3 4.3 0.00 0.00 0.00 48 1015.9
20260905155537 88 208 4.3 6.1 0.00 0.00 0.00 44 1015.9
20260905154524 88 195 5.2 7.0 0.00 0.00 0.00 47 1015.9
20260905153521 88 219 3.5 4.3 0.00 0.00 0.00 49 1015.8
20260905152519 89 199 6.1 7.8 0.00 0.00 0.00 47 1015.9
20260905151538 89 172 4.3 5.2 0.00 0.00 0.00 42 1015.9
20260905151136 89 218 3.5 4.3 0.00 0.00 0.00 42 1015.8
20260905150124 89 199 4.3 6.1 0.00 0.00 0.00 44 1015.8
20260905145142 89 165 5.2 6.1 0.00 0.00 0.00 43 1015.7
20260905144119 89 244 6.1 7.0 0.00 0.00 0.00 45 1015.7
20260905143117 89 230 6.1 7.8 0.00 0.00 0.00 44 1015.7
20260905142115 89 227 5.2 5.2 0.00 0.00 0.00 45 1015.7
20260905141725 89 192 6.1 7.8 0.00 0.00 0.00 45 1015.8
20260905140722 89 221 3.5 4.3 0.00 0.00 0.00 49 1015.9
20260905135719 89 235 3.5 6.1 0.00 0.00 0.00 49 1015.9
20260905134718 89 212 7.8 8.7 0.00 0.00 0.00 48 1015.9
20260905133714 89 277 4.3 5.2 0.00 0.00 0.00 44 1015.9
20260905132743 90 307 2.6 3.5 0.00 0.00 0.00 41 1015.9
20260905132422 90 235 3.5 5.2 0.00 0.00 0.00 42 1015.9
20260905131420 89 35 1.7 1.7 0.00 0.00 0.00 44 1015.9
20260905130417 89 197 3.5 5.2 0.00 0.00 0.00 41 1015.9
20260905125435 89 275 2.6 4.3 0.00 0.00 0.00 40 1016.2
20260905124422 90 259 4.3 5.2 0.00 0.00 0.00 39 1016.2
20260905123441 89 303 7.0 8.7 0.00 0.00 0.00 39 1016.3
20260905123020 89 256 2.6 4.3 0.00 0.00 0.00 40 1016.4
20260905122018 88 282 2.6 5.2 0.00 0.00 0.00 41 1016.5
20260905121015 89 277 1.7 3.5 0.00 0.00 0.00 38 1016.4
20260905120044 88 60 0.9 1.7 0.00 0.00 0.00 38 1016.5
20260905115021 88 285 3.5 6.1 0.00 0.00 0.00 37 1016.5
20260905114018 88 203 0.9 1.7 0.00 0.00 0.00 37 1016.6
20260905113617 88 315 1.7 3.5 0.00 0.00 0.00 36 1016.5
20260905112625 88 45 3.5 5.2 0.00 0.00 0.00 35 1016.6
20260905111622 87 80 1.7 3.5 0.00 0.00 0.00 36 1016.6
20260905110619 87 357 5.2 6.1 0.00 0.00 0.00 36 1016.7
20260905105657 87 293 6.1 7.8 0.00 0.00 0.00 38 1016.6
20260905104615 86 313 4.3 5.2 0.00 0.00 0.00 40 1016.7
20260905104225 86 333 2.6 3.5 0.00 0.00 0.00 39 1016.7
20260905103222 85 309 5.2 6.1 0.00 0.00 0.00 40 1016.7
20260905102239 85 286 6.1 7.8 0.00 0.00 0.00 40 1016.7
20260905101217 87 210 0.9 1.7 0.00 0.00 0.00 34 1016.9
20260905100215 86 307 1.7 1.7 0.00 0.00 0.00 31 1016.9
20260905095223 86 155 0.9 0.9 0.00 0.00 0.00 39 1017.0
20260905094942 85 227 1.7 2.6 0.00 0.00 0.00 38 1016.9
20260905093920 85 204 3.5 4.3 0.00 0.00 0.00 38 1016.7
20260905092918 85 148 1.7 3.5 0.00 0.00 0.00 39 1016.8
20260905091915 84 112 1.7 2.6 0.00 0.00 0.00 40 1016.9
20260905090923 84 90 1.7 1.7 0.00 0.00 0.00 41 1016.7
20260905085921 84 82 1.7 4.3 0.00 0.00 0.00 42 1016.7
20260905085519 84 107 1.7 4.3 0.00 0.00 0.00 43 1016.8
20260905084517 83 121 1.7 2.6 0.00 0.00 0.00 47 1016.7
20260905083524 82 139 2.6 4.3 0.00 0.00 0.00 46 1016.7
20260905082522 82 181 1.7 2.6 0.00 0.00 0.00 52 1016.6
20260905081519 80 195 1.7 1.7 0.00 0.00 0.00 53 1016.6
20260905080518 80 162 1.7 2.6 0.00 0.00 0.00 50 1016.5
20260905080116 81 153 1.7 4.3 0.00 0.00 0.00 48 1016.6
20260905075123 79 65 1.7 2.6 0.00 0.00 0.00 51 1016.5
20260905074121 78 126 0.9 1.7 0.00 0.00 0.00 55 1016.5
20260905073119 77 112 0.9 1.7 0.00 0.00 0.00 59 1016.5
20260905072116 75 330 0.0 0.0 0.00 0.00 0.00 63 1016.3
20260905071125 74 0.0 0.0 0.00 0.00 0.00 67 1016.3
20260905070824 74 0.0 0.0 0.00 0.00 0.00 66 1016.3
20260905065822 74 171 0.9 1.7 0.00 0.00 0.00 64 1016.3